Torna al catalogo

FENGYUN 1C DEB

AttivoSSO
NORAD 31901·DEBRIS·🇨🇳 China

Lanciato May 10, 1999 da Taiyuan Satellite Launch Center

Loading…

Prossimi Passaggi (prossime 24 ore)

TLE

AggiornatoSource: Space-Track

Epoca: Sep 14, 2026, 03:31 UTC

1 31901U 99025CLC 26257.14663471  .00000357  00000-0  27722-3 0  9991
2 31901  98.6335 205.0527 0131812 147.1142 213.8308 13.94275842672451

Traccia FENGYUN 1C DEB in tempo reale con AllMySat

Download on the App Store